Weather in Maksatixa

Russia / Tver Oblast     57°47′36″N   35°52′30″E
temp.,
°C
wind,
m/s
gust,
m/s
humid.,
%
clouds,
%
prec.,
mm/h
press.,
hPa
HPBL,
m
13 august, sat
sat1300:00+15w127929 0.0 102312
03:00+14wnw118712 0.0 102410
06:00+14w11879 0.0 102411
09:00+21w11616 0.0 1023363
12:00+25w114652 0.0 10221332
15:00+26w124087 0.0 10211776
18:00+25wsw115597 0.0 102142
21:00+19wsw1168100 0.0 102111
14 august, sun
sun1400:00+17wsw1174100 0.0 102111
03:00+16wnw1179100 0.0 102111
06:00+16se0080100 0.0 102111
09:00+22se115728 0.0 1021341
12:00+27sse12435 0.0 10211606
15:00+28se11376 0.0 10202107
18:00+27se125146 0.0 101982
21:00+20ese227141 0.0 102031
15 august, mon
mon1500:00+17ese22794 0.0 102015
03:00+16e11843 0.0 102111
06:00+16e22835 0.0 102128
09:00+23e24565 0.0 1021407
12:00+28se35395 0.0 10211777
15:00+29sse333649 0.0 10212433
18:00+25se365690 0.0 1021338
21:00+21ese267076 0.0 1022120
16 august, tue
tue1600:00+19ese3967100 0.0 1022181
03:00+19ese286780 0.0 1022196
06:00+18se257399 0.0 1023103
09:00+24se365167 0.0 1023417
12:00+28se46375 0.0 10221752
15:00+29sse44348 0.0 10212504
18:00+27sse25457 0.0 1021328
21:00+20se246640 0.0 102270
17 august, wed
wed1700:00+19se2268100 0.0 102231
03:00+17ese227238 0.0 102227
06:00+17ese237624 0.0 102249
09:00+21se256494 0.0 1022239
12:00+28sse343794 0.0 10211520
15:00+29se343587 0.0 10212368
18:00+26ese2451100 0.0 1020102
21:00+21se2260100 0.0 102129